User: anonymous   Login
Location: Sungai Anya
(2.6167°N, 114.0500°E)
Time: 08:18:20
(UTC+00:00)
Language:

Meteor 2-10 Rocket - Orbit

View from above orbital plane
View from above orbital plane
View from above satellite
View from above satellite

Ground track
Ground track

The orbit data is extracted from the following two-line orbital elements,

1 14453U 83109B   22019.87491165  .00000062  00000-0  20224-4 0  9995
2 14453  81.1646 218.4198 0103858 249.6437 109.3560 14.24768608986416
Epoch (UTC): 19 January 2022 20:59:52
Eccentricity: 0.0103858
inclination: 81.1646°
perigee height: 734 km
apogee height: 884 km
right ascension of ascending node: 218.4198°
argument of perigee: 249.6437°
revolutions per day: 14.24768608
mean anomaly at epoch: 109.3560°
orbit number at epoch: 98641

The dashed part of the orbit path shows where the satellite is in the earth's shadow,  

DLR